| time (UTC) | temp C | wind direction | speed KPH | gust KPH | rain 1hr cm | rain 24hr cm | rain mn cm | humidity % | barometer mb |
| 20260504173054 | 22 | 360 | 6.4 | 19.3 | 0.00 | 0.00 | 0.00 | 35 | 1008.2 |
| 20260504171553 | 22 | 360 | 3.2 | 17.7 | 0.00 | 0.00 | 0.00 | 33 | 1008.3 |
| 20260504081509 | 4 | 360 | 0.0 | 0.0 | 0.00 | 0.00 | 0.00 | 78 | 1011.0 |
| 20260504044545 | 4 | 360 | 0.0 | 0.0 | 0.00 | 0.00 | 0.00 | 76 | 1011.5 |
| 20260504043146 | 4 | 360 | 0.0 | 0.0 | 0.00 | 0.00 | 0.00 | 76 | 1011.4 |
| 20260504041542 | 5 | 360 | 0.0 | 0.0 | 0.00 | 0.00 | 0.00 | 75 | 1011.4 |
| 20260504040039 | 5 | 360 | 0.0 | 0.0 | 0.00 | 0.00 | 0.00 | 74 | 1011.4 |
| 20260504034538 | 5 | 360 | 0.0 | 0.0 | 0.00 | 0.00 | 0.00 | 73 | 1011.3 |
| 20260504033040 | 5 | 360 | 0.0 | 0.0 | 0.00 | 0.00 | 0.00 | 72 | 1011.1 |
| 20260504031541 | 5 | 360 | 0.0 | 0.0 | 0.00 | 0.00 | 0.00 | 71 | 1010.9 |
| 20260504030040 | 5 | 360 | 0.0 | 0.0 | 0.00 | 0.00 | 0.00 | 71 | 1010.9 |
| 20260504024537 | 6 | 360 | 0.0 | 0.0 | 0.00 | 0.00 | 0.00 | 70 | 1011.0 |
| 20260504023037 | 6 | 360 | 0.0 | 0.0 | 0.00 | 0.00 | 0.00 | 68 | 1010.9 |
| 20260504021536 | 6 | 360 | 0.0 | 0.0 | 0.00 | 0.00 | 0.00 | 67 | 1010.8 |
| 20260504020035 | 7 | 360 | 0.0 | 0.0 | 0.00 | 0.00 | 0.00 | 64 | 1010.7 |
| 20260504014539 | 7 | 360 | 0.0 | 0.0 | 0.00 | 0.00 | 0.00 | 62 | 1010.6 |
| 20260504013042 | 8 | 360 | 0.0 | 1.6 | 0.00 | 0.00 | 0.00 | 61 | 1010.5 |
| 20260504011537 | 8 | 360 | 0.0 | 1.6 | 0.00 | 0.00 | 0.00 | 58 | 1010.4 |
| 20260504010036 | 8 | 360 | 0.0 | 1.6 | 0.00 | 0.00 | 0.00 | 55 | 1010.2 |
| 20260504004532 | 10 | 360 | 0.0 | 0.0 | 0.00 | 0.00 | 0.00 | 51 | 1009.9 |
| 20260504003036 | 10 | 360 | 0.0 | 1.6 | 0.00 | 0.00 | 0.00 | 41 | 1009.8 |
| 20260504001538 | 11 | 360 | 0.0 | 6.4 | 0.00 | 0.00 | 0.00 | 39 | 1009.3 |
| 20260504000032 | 11 | 360 | 0.0 | 1.6 | 0.00 | 0.00 | 0.00 | 40 | 1009.2 |
| 20260503234532 | 11 | 360 | 0.0 | 3.2 | 0.00 | 0.00 | 0.00 | 40 | 1009.0 |
| 20260503233030 | 11 | 360 | 0.0 | 3.2 | 0.00 | 0.00 | 0.00 | 38 | 1008.8 |
| 20260503231530 | 12 | 360 | 0.0 | 3.2 | 0.00 | 0.00 | 0.00 | 38 | 1008.8 |
| 20260503230029 | 12 | 360 | 1.6 | 8.0 | 0.00 | 0.00 | 0.00 | 36 | 1008.7 |
| 20260503224529 | 13 | 360 | 1.6 | 12.9 | 0.00 | 0.00 | 0.00 | 36 | 1008.7 |
| 20260503223028 | 13 | 360 | 1.6 | 9.7 | 0.00 | 0.00 | 0.00 | 37 | 1008.7 |
| 20260503221527 | 13 | 360 | 1.6 | 9.7 | 0.00 | 0.00 | 0.00 | 37 | 1008.7 |
| 20260503220027 | 13 | 360 | 1.6 | 12.9 | 0.00 | 0.00 | 0.00 | 38 | 1008.8 |
| 20260503214527 | 12 | 360 | 1.6 | 14.5 | 0.00 | 0.00 | 0.00 | 39 | 1008.9 |
| 20260503213024 | 12 | 360 | 3.2 | 17.7 | 0.00 | 0.00 | 0.00 | 40 | 1008.9 |
| 20260503211524 | 12 | 360 | 6.4 | 20.9 | 0.00 | 0.00 | 0.00 | 40 | 1009.0 |
| 20260503210023 | 12 | 360 | 4.8 | 14.5 | 0.00 | 0.00 | 0.00 | 40 | 1008.7 |
| 20260503204522 | 12 | 360 | 1.6 | 9.7 | 0.00 | 0.00 | 0.00 | 42 | 1008.8 |
| 20260503203024 | 12 | 360 | 3.2 | 9.7 | 0.00 | 0.00 | 0.00 | 43 | 1008.8 |
| 20260503201523 | 11 | 360 | 1.6 | 14.5 | 0.00 | 0.00 | 0.00 | 43 | 1008.8 |
| 20260503200022 | 12 | 360 | 3.2 | 12.9 | 0.00 | 0.00 | 0.00 | 42 | 1008.7 |
| 20260503194521 | 12 | 360 | 3.2 | 12.9 | 0.00 | 0.00 | 0.00 | 43 | 1008.7 |
| 20260503193020 | 12 | 360 | 3.2 | 19.3 | 0.00 | 0.00 | 0.00 | 42 | 1008.7 |
| 20260503191530 | 12 | 360 | 3.2 | 14.5 | 0.00 | 0.00 | 0.00 | 44 | 1008.7 |
| 20260503190018 | 12 | 360 | 3.2 | 9.7 | 0.00 | 0.00 | 0.00 | 43 | 1008.6 |
| 20260503184518 | 12 | 360 | 3.2 | 20.9 | 0.00 | 0.00 | 0.00 | 43 | 1008.8 |
| 20260503183017 | 12 | 360 | 4.8 | 20.9 | 0.00 | 0.00 | 0.00 | 44 | 1008.7 |
| 20260503181517 | 12 | 360 | 3.2 | 16.1 | 0.00 | 0.00 | 0.00 | 42 | 1008.8 |
| 20260503180017 | 12 | 360 | 3.2 | 14.5 | 0.00 | 0.00 | 0.00 | 43 | 1008.7 |
| 20260503174516 | 12 | 360 | 6.4 | 19.3 | 0.00 | 0.00 | 0.00 | 45 | 1008.7 |